[[{"header":{"parameterUnit":"m.s-1","parameterCategory":1,"la1":30.2991,"la2":30.254,"lo1":-89.0895,"lo2":-89.0444,"dy":0.0017,"dx":0.0017,"nx":28,"ny":28,"refTime":"2024-08-02T03:00:00:Z","depth":0,"parameterNumber":2,"parameterNumberName":"U-component_of_WINDS"},"data":[0,0,0,0,0,0,0,0,0,0,0,0,0,0,0,0,0,0,0,0,0,0,0,0,0,0,0,0,0,0,0,0,0,0,0,0,0,0,0,0,0,0,0,0,0,0,0,0,0,0,0,0,0,0,0,0,0,0,0.2336,0.2337,0,0.2374,0.2375,0.2375,0.2372,0.2371,0.2371,0.237,0.2416,0.2417,0.2419,0,0,0,0,0,0,0,0,0,0,0,0,0,0.2268,0.227,0.2336,0.2337,0.2337,0.2374,0.2375,0.2375,0.2372,0.2371,0.237,0.237,0.2415,0.2417,0.2419,0,0,0,0,0,0,0,0,0,0,0,0,0,0.2301,0.227,0.2336,0.234,0.2341,0.2374,0.2375,0.2375,0.2372,0.2371,0.237,0.2369,0.2414,0.2417,0.242,0.2454,0,0,0.2428,0.2429,0,0,0,0,0,0,0,0,0.2299,0.2304,0.2339,0.234,0.2341,0.2367,0.2367,0.2402,0.2372,0.236,0.237,0.2369,0.2401,0.2404,0.2414,0.2456,0.2458,0.2428,0.243,0.2431,0.2431,0,0,0,0,0,0,0,0.2297,0.2302,0.2352,0.2339,0.234,0.2342,0.2346,0.2374,0.2385,0.2361,0.2361,0.2365,0.2401,0.2411,0.2415,0.2459,0.2428,0.243,0.2432,0.2433,0.2533,0.2534,0,0,0,0,0,0,0.2293,0.23,0.235,0.2353,0.2317,0.2344,0.2348,0.236,0.2385,0.2388,0.2366,0.2365,0.2407,0.2412,0.2416,0.2458,0.2431,0.2433,0.2435,0.2532,0.2533,0.2534,0,0,0,0,0,0,0.2292,0.2298,0.2349,0.2326,0.2333,0.2346,0.2359,0.2361,0.2371,0.2388,0.2391,0.2374,0.2407,0.2413,0.2444,0.246,0.2434,0.2437,0.253,0.2532,0.2533,0.2543,0,0,0,0,0,0,0.229,0.2297,0.2308,0.2327,0.2334,0.2374,0.236,0.2362,0.2375,0.2374,0.2396,0.2399,0.2406,0.244,0.2447,0.2463,0.2439,0.2529,0.2531,0.2533,0.2541,0.2544,0.2547,0,0,0,0,0,0.2287,0.2311,0.2309,0.2315,0.2348,0.2375,0.2379,0.2385,0.2376,0.2389,0.24,0.2399,0.2457,0.2444,0.2451,0.2468,0.2528,0.253,0.2533,0.254,0.2544,0.2547,0,0,0,0,0,0,0.2296,0.2313,0.2311,0.2341,0.2356,0.2374,0.239,0.2389,0.2409,0.2407,0.2415,0.2421,0.2453,0.2464,0.2448,0.2504,0.2492,0.2496,0.2495,0.2499,0.2502,0.2498,0.2441,0,0,0,0,0,0.2301,0.2319,0.2334,0.2359,0.2366,0.2377,0.2389,0.2391,0.2408,0.2416,0.2429,0.2448,0.2471,0.2485,0.2507,0.2543,0.2549,0.2559,0.2562,0.2564,0.2568,0.2588,0.2593,0.2542,0.2542,0.2542,0,0,0.2312,0.2324,0.2335,0.2361,0.2373,0.2393,0.2382,0.2404,0.242,0.242,0.2449,0.2461,0.2482,0.2516,0.2532,0.2527,0.2583,0.2567,0.2569,0.2571,0.2591,0.2596,0.26,0.2543,0.2543,0.2543,0,0,0.2343,0.2353,0.2375,0.2387,0.2405,0.2412,0.2417,0.2435,0.2442,0.2472,0.2472,0.2493,0.2531,0.2547,0.256,0.2597,0.2597,0.2605,0.2621,0.2641,0.2645,0.2648,0.2662,0.2667,0.2608,0.2608,0.2608,0,0.2355,0.2383,0.2387,0.2408,0.242,0.2419,0.2443,0.2455,0.248,0.249,0.2483,0.2532,0.2546,0.2584,0.2593,0.2604,0.2612,0.2601,0.2643,0.2647,0.2651,0.2664,0.2669,0.2609,0.2609,0.2609,0.2608,0,0.2397,0.2417,0.2433,0.2455,0.2469,0.2492,0.2501,0.2515,0.2518,0.2526,0.2558,0.2575,0.2601,0.261,0.2614,0.2649,0.2645,0.2641,0.2629,0.2656,0.2669,0.2674,0.261,0.2609,0.2609,0.2609,0,0,0.2433,0.2457,0.2463,0.2473,0.2493,0.2509,0.2533,0.2556,0.2569,0.2587,0.2608,0.2641,0.2637,0.2652,0.2657,0.2675,0.2704,0.2669,0.2669,0.2675,0.2745,0.2748,0.2754,0.2705,0.2706,0.2706,0.2744,0,0.2465,0.2504,0.2509,0.2544,0.2564,0.2564,0.2585,0.2601,0.261,0.263,0.2641,0.2664,0.2657,0.2666,0.2684,0.2697,0.2719,0.2694,0.2726,0.2727,0.2719,0.276,0.2763,0.2797,0.2749,0.2749,0.275,0,0.2507,0.2524,0.2561,0.2579,0.2587,0.2606,0.2627,0.2646,0.2665,0.2671,0.2687,0.2691,0.2718,0.2705,0.2744,0.2727,0.2741,0.275,0.2751,0.2754,0.2739,0.2764,0.2808,0.2813,0.2758,0.2757,0.2757,0,0.253,0.2562,0.2588,0.2597,0.2619,0.2632,0.2642,0.266,0.2674,0.2694,0.2704,0.2728,0.2741,0.2761,0.2772,0.2761,0.281,0.2798,0.2816,0.2816,0.2826,0.2825,0.2872,0.2836,0.2835,0.2835,0.2835,0,0.2564,0.2587,0.2598,0.2614,0.264,0.2647,0.2674,0.2684,0.27,0.272,0.2723,0.2742,0.2755,0.2777,0.2787,0.2817,0.2824,0.283,0.2832,0.283,0.2829,0.2838,0.2836,0.2837,0.2836,0.2836,0.2836,0,0.2593,0.2601,0.263,0.2648,0.2653,0.2672,0.2688,0.2705,0.2715,0.274,0.2747,0.2762,0.2788,0.2801,0.2834,0.284,0.2875,0.2876,0.2868,0.2868,0.2886,0.2884,0.2941,0.2949,0.2907,0.2907,0.2908,0,0.2614,0.2631,0.2651,0.2663,0.2673,0.2693,0.2707,0.2715,0.273,0.2754,0.2768,0.2794,0.2815,0.2857,0.2873,0.2898,0.29,0.2918,0.2904,0.2901,0.29,0.2898,0.2901,0.292,0.2921,0.2921,0.2921,0,0.2651,0.2654,0.2672,0.2693,0.2708,0.2725,0.2742,0.2753,0.2764,0.2781,0.2806,0.2822,0.2855,0.2881,0.2908,0.2922,0.2924,0.2926,0.2931,0.2928,0.2922,0.2926,0.2874,0.2924,0.2924,0.2924,0.2923,0.2923,0.2676,0.2692,0.2708,0.2728,0.2742,0.2757,0.2774,0.2785,0.2806,0.2831,0.2836,0.2863,0.2885,0.292,0.2935,0.2958,0.2954,0.2962,0.2964,0.2966,0.2967,0.2919,0.2963,0.2963,0.2963,0.2963,0.2963,0,0.2713,0.2723,0.2742,0.2765,0.2782,0.2781,0.28,0.2814,0.2837,0.2856,0.2876,0.2906,0.2931,0.2949,0.2976,0.2991,0.2993,0.2998,0.2997,0.3,0.2969,0.2961,0.2996,0.2996,0.2996,0.2996,0.2996,0.2996,0.2734,0.276,0.2765,0.2799,0.281,0.2834,0.2846,0.2861,0.2875,0.2908,0.2928,0.2939,0.2958,0.2986,0.3011,0.3016,0.3025,0.303,0.3035,0.3006,0.3002,0.2999,0.2991,0.3032,0.3032,0.3064,0.3065,0.3065]},{"header":{"parameterUnit":"m.s-1","parameterCategory":1,"la1":30.2991,"la2":30.254,"lo1":-89.0895,"lo2":-89.0444,"dy":0.0017,"dx":0.0017,"nx":28,"ny":28,"refTime":"2024-08-02T03:00:00:Z","depth":0,"parameterNumber":3,"parameterNumberName":"V-component_of_WINDS"},"data":[0,0,0,0,0,0,0,0,0,0,0,0,0,0,0,0,0,0,0,0,0,0,0,0,0,0,0,0,0,0,0,0,0,0,0,0,0,0,0,0,0,0,0,0,0,0,0,0,0,0,0,0,0,0,0,0,0,0,2.3799,2.38,0,2.3919,2.392,2.3922,2.393,2.3929,2.3927,2.3926,2.4045,2.4049,2.4053,0,0,0,0,0,0,0,0,0,0,0,0,0,2.357,2.3574,2.3798,2.38,2.3801,2.3919,2.392,2.3922,2.393,2.3929,2.3927,2.3925,2.4043,2.4048,2.4054,0,0,0,0,0,0,0,0,0,0,0,0,0,2.3678,2.3576,2.3798,2.382,2.3823,2.3918,2.392,2.3922,2.3931,2.3929,2.3927,2.3925,2.4042,2.4048,2.4054,2.4135,0,0,2.4075,2.4077,0,0,0,0,0,0,0,0,2.3671,2.3686,2.3815,2.3818,2.3822,2.3907,2.3883,2.3993,2.3931,2.389,2.3926,2.3924,2.4,2.401,2.4037,2.414,2.4146,2.4075,2.4079,2.4082,2.4084,0,0,0,0,0,0,0,2.3664,2.3681,2.3846,2.3817,2.3821,2.3822,2.3835,2.3904,2.3954,2.3893,2.3894,2.3908,2.4002,2.4031,2.404,2.4147,2.4075,2.4081,2.4085,2.4087,2.4322,2.4324,0,0,0,0,0,0,2.3653,2.3675,2.3842,2.3849,2.3741,2.3827,2.3842,2.3882,2.3954,2.3963,2.391,2.3908,2.402,2.4032,2.4044,2.4144,2.4082,2.4088,2.4092,2.432,2.4322,2.4325,0,0,0,0,0,0,2.3648,2.3668,2.3837,2.3762,2.3784,2.3833,2.3878,2.3885,2.3914,2.3967,2.3975,2.3931,2.4019,2.4035,2.4112,2.4148,2.4091,2.4097,2.4317,2.432,2.4324,2.4343,0,0,0,0,0,0,2.3642,2.3666,2.3699,2.3763,2.3788,2.3906,2.388,2.3889,2.3926,2.3925,2.3988,2.3997,2.4019,2.4103,2.4119,2.4156,2.4102,2.4314,2.4319,2.4323,2.4339,2.4347,2.4353,0,0,0,0,0,2.3633,2.3699,2.3701,2.3721,2.383,2.3908,2.3922,2.3947,2.3929,2.3962,2.3995,2.3995,2.4141,2.411,2.4129,2.4168,2.4312,2.4317,2.4322,2.4336,2.4345,2.4353,0,0,0,0,0,0,2.3636,2.3708,2.3711,2.3799,2.3847,2.3909,2.3951,2.3956,2.4009,2.4006,2.4034,2.4048,2.4125,2.4154,2.4119,2.4249,2.4224,2.4233,2.4228,2.4237,2.4244,2.4236,2.4108,0,0,0,0,0,2.3647,2.3706,2.3764,2.3836,2.386,2.3901,2.3936,2.3951,2.4002,2.4022,2.4061,2.4109,2.4166,2.4203,2.4257,2.4342,2.4356,2.4378,2.4385,2.439,2.4398,2.4445,2.4456,2.4342,2.4342,2.4342,0,0,2.367,2.3716,2.3752,2.3838,2.3877,2.3936,2.3919,2.3982,2.4025,2.4031,2.4108,2.4138,2.4193,2.4275,2.4313,2.4301,2.4432,2.4397,2.44,2.4406,2.4452,2.4463,2.4472,2.4345,2.4345,2.4344,0,0,2.3743,2.3784,2.3849,2.3888,2.3949,2.3975,2.399,2.4051,2.4072,2.4149,2.4155,2.4206,2.4303,2.4342,2.4374,2.446,2.4462,2.4476,2.4512,2.4557,2.4566,2.4575,2.4606,2.4617,2.4484,2.4484,2.4484,0,2.3764,2.3855,2.3881,2.3944,2.3982,2.3991,2.4056,2.4092,2.4166,2.4191,2.4177,2.4299,2.4337,2.4428,2.4449,2.4474,2.4492,2.4471,2.4563,2.4572,2.458,2.461,2.4622,2.4485,2.4485,2.4485,2.4485,0,2.3878,2.394,2.3985,2.4058,2.41,2.4164,2.4198,2.4237,2.4247,2.4274,2.4352,2.4397,2.4462,2.4483,2.4494,2.4576,2.4567,2.4558,2.4533,2.4592,2.4621,2.4632,2.4487,2.4487,2.4486,2.4486,0,0,2.3958,2.4044,2.4061,2.4094,2.416,2.4208,2.427,2.4335,2.4368,2.4417,2.4471,2.4552,2.4543,2.458,2.4595,2.4634,2.47,2.462,2.4622,2.4635,2.4793,2.4801,2.4814,2.47,2.4702,2.4704,2.4789,0,2.404,2.4155,2.4179,2.4278,2.4335,2.4343,2.4398,2.4443,2.447,2.4521,2.4548,2.4606,2.459,2.4613,2.4652,2.4683,2.4732,2.4677,2.475,2.4752,2.4739,2.4829,2.4839,2.4917,2.48,2.4802,2.4803,0,2.4151,2.4206,2.431,2.4369,2.4394,2.4443,2.4503,2.4552,2.4603,2.4619,2.4659,2.4669,2.4733,2.4703,2.4791,2.4753,2.4783,2.4803,2.4806,2.4816,2.4783,2.4843,2.4942,2.4955,2.4821,2.482,2.4819,0,2.4201,2.43,2.4376,2.4404,2.4473,2.4507,2.4537,2.4586,2.4623,2.4674,2.4698,2.4755,2.4787,2.4831,2.4855,2.4831,2.4941,2.4914,2.4957,2.4956,2.4982,2.498,2.5089,2.4997,2.4997,2.4997,2.4997,0,2.4291,2.4355,2.4399,2.4446,2.4518,2.4543,2.4612,2.4642,2.4685,2.4736,2.4745,2.4792,2.4821,2.4872,2.4891,2.4961,2.4974,2.4989,2.4994,2.499,2.4988,2.5012,2.5008,2.5,2.4999,2.4999,2.4998,0,2.436,2.4392,2.4476,2.4534,2.455,2.46,2.465,2.4694,2.472,2.4785,2.4801,2.484,2.4901,2.4929,2.5003,2.5016,2.5096,2.5096,2.508,2.5082,2.5124,2.5121,2.5254,2.5273,2.5167,2.5168,2.5168,0,2.4417,2.4467,2.4531,2.4567,2.4598,2.4655,2.4693,2.4719,2.4757,2.4818,2.4855,2.4916,2.4967,2.5063,2.5097,2.5153,2.5156,2.5198,2.5164,2.5159,2.5159,2.5156,2.5162,2.5205,2.5207,2.5207,2.5208,0,2.4514,2.4527,2.4582,2.4643,2.4688,2.4737,2.4784,2.4812,2.4845,2.4888,2.4951,2.499,2.5066,2.5126,2.5185,2.5214,2.5217,2.5218,2.5231,2.5229,2.5219,2.5227,2.5099,2.5216,2.5215,2.5214,2.5214,2.5214,2.458,2.4625,2.4677,2.4738,2.4776,2.482,2.4866,2.4897,2.495,2.5016,2.5026,2.5093,2.5141,2.522,2.525,2.5302,2.5292,2.5311,2.5316,2.5321,2.5324,2.5208,2.5312,2.5312,2.5312,2.5312,2.5312,0,2.4679,2.4713,2.4768,2.4835,2.4883,2.4881,2.4933,2.4973,2.5033,2.5077,2.5127,2.5199,2.5257,2.5295,2.5353,2.5387,2.539,2.5402,2.5401,2.5408,2.5329,2.5313,2.5399,2.5399,2.5399,2.5399,2.5399,2.5399,2.4736,2.4813,2.4832,2.4926,2.4958,2.5026,2.5056,2.5096,2.5132,2.5212,2.5261,2.5286,2.5328,2.5389,2.5442,2.5452,2.5473,2.5486,2.5496,2.5422,2.5413,2.5404,2.5389,2.549,2.549,2.557,2.5571,2.5572]}]]